NOAA 16 DEB, 41150

Orbit data source: Space-Track

NOAA 16 DEB, 41150 is space debris in SSO originally from a launch on Thu, 21 Sep 2000 UTC launched from the Air Force Western Test Range (AFWTR). Debris objects in space refer to the collection of defunct objects orbiting the Earth. Examples of debris include non-operational satellites, rocket bodies, and fragments generated from explosions, collisions, or faulty payload assembly.

Loading next visibility...
NOAA 16 DEB details
Identifier
41150, 2000-055CH
Orbit
SSO
Last TLE update1 day ago
Origin
Flag of USNOAA (US)
ManufacturerUnknown
MissionSpacecraft
Bus & MotorUnknown
MassUnknown
Launch date (UTC)
2000-09-21 (24 years ago)
Launch vehicleUnknown
Launch site
Air Force Western Test Range (AFWTR)
Object type
Payload
Rocket body
Debris
Shape & HBRUnknown
Radar Cross SectionSmall (<0.1 m²)

Expand to show TLE details & history

TLE from 1 day ago
0 NOAA 16 DEB
1 41150U 00055CH  24339.19128503  .00039893  00000-0  93472-2 0  9990
2 41150  98.8053 115.4087 0044274 249.5751 110.0686 14.53765373470058
Epoch: 2024-12-04T04:35Z
Definitive object data (Epoch: 2024-12-04T04:35:27.026Z)
Latitude-0.00007°
Longitude-26.94388°
Altitude727.233 km
Speed7.486 km/s
True Right ascension07h 41m 38s
True Declination0° 00' 00"
Sunlit
Object was in full shadow at TLE epoch
Visualization TLE readout
Latitude79.35135°
Longitude-80.94444°
Altitude756.342 km
Speed7.467 km/s
Apparent Right ascension13h 23m 02s
Apparent Declination37° 23' 27"
Sunlit
Object is in full shadow
Visualization observer readout
Local Sidereal Time02:03:32
Azimuth8.215° NNE
Elevation-12.136°
Doppler factor1
Orbital elements
Apogee altitude741.879 km
Perigee altitude679.111 km
Semi-major axis7,088.632 km
Eccentricity0.0044274
Inclination98.8053°
RAAN115.4087°
Arg. of periapsis249.5751°
True anomaly110.54423°
Mean anomaly110.0686°
Eccentric anomaly110.30651°
Mean motion3.63663 °/min
BSTAR0.0093472
Orbital period98.99 mins
Loading maneuver chart data...
Loading historical data...
Loading historical data...
Loading historical data...
Loading historical data...
Loading historical data...
Loading historical data...
Loading historical data...

NOAA 16 DEB Visibility forecast

Observer location: undefined°, undefined

Span
Click to sort rows by Start time (UTC) header in descending order
Start Az.
Max El. time (UTC)
Max El. Az.
Max El.
End time (UTC)
End Az.
9 mins2024-12-05 08:47:11.870Z144.704° SSE2024-12-05 08:52:11.870Z57.766° ENE36.68°2024-12-05 08:56:11.870Z359.126° N
5 mins2024-12-05 10:28:11.870Z240.811° WSW2024-12-05 10:30:11.870Z270.152° WNW17.114°2024-12-05 10:33:11.870Z308.446° NW
8 mins2024-12-05 22:28:11.870Z4.745° NNE2024-12-05 22:31:11.870Z314.013° NW41.981°2024-12-05 22:36:11.870Z205.216° SW
|